Location: Ray Roberts Lake State Park - Johnson Branch Unit
(33.3953°N, 97.0509°W)
Time: 23:46:55
(UTC-05:00)

ISS - Visible Passes

Search period start: 17 October 2018 00:00
Search period end: 27 October 2018 00:00
Orbit: 403 x 408 km, 51.6° (Epoch: 18 October)

Date Brightness Start Highest point End Pass type
(mag) Time Alt. Az. Time Alt. Az. Time Alt. Az.
23 Oct -1.1 07:11:15 10° S 07:13:52 22° SE 07:16:29 10° ENE visible
24 Oct -0.4 06:21:21 10° SE 06:22:05 11° SE 06:22:49 10° ESE visible
25 Oct -3.5 07:02:58 10° SW 07:06:13 70° SE 07:09:28 10° NE visible
26 Oct -2.0 06:12:02 14° S 06:14:17 30° SE 06:17:12 10° ENE visible
